TimeEST,TemperatureF,Dew PointF,Humidity,Sea Level PressureIn,VisibilityMPH,Wind Direction,Wind SpeedMPH,Gust SpeedMPH,PrecipitationIn,Events,Conditions,WindDirDegrees,DateUTC
12:16 AM,2.1,-4.0,76,30.31,10.0,East,6.9,-,N/A,,Clear,90,2014-02-17 05:16:00
12:36 AM,1.4,-4.0,78,30.31,10.0,East,4.6,-,N/A,,Clear,100,2014-02-17 05:36:00
12:56 AM,0.1,-4.2,82,30.32,10.0,SE,6.9,-,N/A,,Clear,130,2014-02-17 05:56:00
1:16 AM,2.8,-1.1,84,30.32,10.0,SE,5.8,-,N/A,,Clear,140,2014-02-17 06:16:00
1:37 AM,4.3,-1.3,78,30.33,10.0,ESE,6.9,-,N/A,,Clear,120,2014-02-17 06:37:00
1:56 AM,4.5,-0.2,81,30.33,10.0,ESE,5.8,-,N/A,,Clear,120,2014-02-17 06:56:00
2:16 AM,4.3,0.1,83,30.34,10.0,SSE,4.6,-,N/A,,Clear,150,2014-02-17 07:16:00
2:37 AM,3.0,-1.3,82,30.34,10.0,SSE,6.9,-,N/A,,Clear,150,2014-02-17 07:37:00
2:56 AM,2.7,-1.8,81,30.34,10.0,SE,4.6,-,N/A,,Clear,140,2014-02-17 07:56:00
3:17 AM,1.6,-2.6,83,30.35,10.0,SSE,4.6,-,N/A,,Clear,160,2014-02-17 08:17:00
3:36 AM,2.7,-0.9,85,30.34,10.0,SSE,6.9,-,N/A,,Clear,150,2014-02-17 08:36:00
3:56 AM,4.6,-0.0,81,30.34,10.0,SE,8.1,-,N/A,,Clear,140,2014-02-17 08:56:00
4:17 AM,5.4,0.7,81,30.33,10.0,SE,5.8,-,N/A,,Clear,140,2014-02-17 09:17:00
4:36 AM,5.5,1.0,82,30.33,10.0,SE,8.1,-,N/A,,Clear,140,2014-02-17 09:36:00
4:56 AM,6.6,1.8,80,30.33,10.0,SE,8.1,-,N/A,,Clear,140,2014-02-17 09:56:00
5:17 AM,7.7,1.8,77,30.33,10.0,SE,5.8,-,N/A,,Clear,140,2014-02-17 10:17:00
5:36 AM,7.0,1.0,77,30.33,10.0,SE,6.9,-,N/A,,Clear,140,2014-02-17 10:36:00
5:56 AM,6.4,0.5,77,30.33,10.0,SSE,6.9,-,N/A,,Clear,150,2014-02-17 10:56:00
6:17 AM,5.9,-0.4,75,30.33,10.0,SE,6.9,-,N/A,,Clear,140,2014-02-17 11:17:00
6:36 AM,5.7,-1.3,73,30.33,10.0,SE,8.1,-,N/A,,Clear,140,2014-02-17 11:36:00
6:56 AM,5.9,-1.8,70,30.32,10.0,SSE,9.2,-,N/A,,Clear,150,2014-02-17 11:56:00
7:16 AM,5.9,-2.2,69,30.31,10.0,SE,10.4,16.1,N/A,,Clear,140,2014-02-17 12:16:00
7:37 AM,5.5,-2.6,69,30.30,10.0,SE,11.5,-,N/A,,Clear,140,2014-02-17 12:37:00
7:57 AM,6.1,-2.2,69,30.30,10.0,SE,10.4,17.3,N/A,,Clear,140,2014-02-17 12:57:00
8:16 AM,7.5,-1.5,67,30.29,10.0,SE,8.1,18.4,N/A,,Clear,140,2014-02-17 13:16:00
8:37 AM,8.6,-0.8,66,30.27,10.0,SE,11.5,18.4,N/A,,Clear,140,2014-02-17 13:37:00
8:57 AM,9.7,-0.4,64,30.26,10.0,SE,10.4,20.7,N/A,,Clear,140,2014-02-17 13:57:00
9:16 AM,10.4,-1.3,59,30.25,5.0,SE,9.2,20.7,N/A,Snow,Light Snow,140,2014-02-17 14:16:00
9:37 AM,10.4,-1.3,59,30.23,10.0,SSE,8.1,20.7,N/A,,Clear,150,2014-02-17 14:37:00
9:57 AM,11.3,-1.1,57,30.22,10.0,SE,12.7,23.0,N/A,,Clear,140,2014-02-17 14:57:00
10:16 AM,11.8,-0.8,57,30.21,10.0,SE,12.7,23.0,N/A,,Clear,140,2014-02-17 15:16:00
10:37 AM,13.1,-0.8,54,30.19,10.0,SE,18.4,28.8,N/A,,Clear,140,2014-02-17 15:37:00
10:56 AM,14.9,0.5,53,30.17,10.0,SE,8.1,21.9,N/A,,Clear,130,2014-02-17 15:56:00
11:17 AM,15.4,3.0,58,30.16,10.0,ESE,9.2,-,N/A,,Clear,110,2014-02-17 16:17:00
11:37 AM,14.9,3.7,61,30.15,10.0,ESE,12.7,16.1,N/A,,Clear,110,2014-02-17 16:37:00
11:56 AM,16.9,4.1,57,30.14,10.0,SE,11.5,-,N/A,,Clear,130,2014-02-17 16:56:00
12:17 PM,16.7,5.7,62,30.13,10.0,ESE,9.2,18.4,N/A,,Scattered Clouds,110,2014-02-17 17:17:00
12:36 PM,18.1,5.9,59,30.12,10.0,ESE,11.5,19.6,N/A,,Clear,120,2014-02-17 17:36:00
12:57 PM,18.1,6.6,61,30.10,10.0,ESE,10.4,18.4,N/A,,Clear,110,2014-02-17 17:57:00
1:17 PM,18.0,7.9,65,30.09,10.0,ESE,12.7,21.9,N/A,,Clear,110,2014-02-17 18:17:00
1:36 PM,18.1,8.1,65,30.08,10.0,ESE,11.5,21.9,N/A,,Clear,110,2014-02-17 18:36:00
1:57 PM,19.0,9.0,65,30.08,10.0,East,16.1,20.7,N/A,,Clear,100,2014-02-17 18:57:00
2:17 PM,19.0,9.1,65,30.07,10.0,ESE,11.5,20.7,N/A,,Clear,110,2014-02-17 19:17:00
2:36 PM,19.4,9.5,65,30.06,10.0,ESE,9.2,-,N/A,,Clear,110,2014-02-17 19:36:00
2:57 PM,19.4,10.4,68,30.05,10.0,ESE,8.1,18.4,N/A,,Scattered Clouds,110,2014-02-17 19:57:00
3:16 PM,19.8,10.0,66,30.03,10.0,ESE,8.1,20.7,N/A,,Scattered Clouds,110,2014-02-17 20:16:00
3:36 PM,21.2,5.4,51,30.02,10.0,ESE,12.7,19.6,N/A,,Scattered Clouds,110,2014-02-17 20:36:00
3:57 PM,18.9,9.3,66,30.00,10.0,East,15.0,26.5,N/A,,Scattered Clouds,100,2014-02-17 20:57:00
4:16 PM,17.6,9.3,70,29.99,10.0,ESE,12.7,23.0,N/A,,Mostly Cloudy,110,2014-02-17 21:16:00
4:37 PM,17.4,8.8,69,29.98,10.0,East,13.8,26.5,N/A,,Overcast,100,2014-02-17 21:37:00
4:57 PM,16.7,9.5,73,29.97,10.0,ESE,16.1,29.9,N/A,,Overcast,110,2014-02-17 21:57:00
5:16 PM,16.5,9.1,73,29.96,10.0,East,17.3,28.8,N/A,,Overcast,100,2014-02-17 22:16:00
5:37 PM,16.3,8.8,72,29.95,10.0,East,13.8,28.8,N/A,,Overcast,100,2014-02-17 22:37:00
5:57 PM,16.3,9.3,74,29.94,10.0,East,20.7,31.1,N/A,,Overcast,100,2014-02-17 22:57:00
6:16 PM,16.0,9.3,75,29.92,10.0,East,16.1,28.8,N/A,,Overcast,100,2014-02-17 23:16:00
6:37 PM,15.8,9.0,74,29.90,7.0,East,19.6,31.1,N/A,,Overcast,100,2014-02-17 23:37:00
6:57 PM,15.8,11.3,82,29.89,7.0,East,16.1,33.4,N/A,,Overcast,100,2014-02-17 23:57:00
7:16 PM,15.8,11.3,82,29.88,7.0,East,18.4,28.8,N/A,,Overcast,100,2014-02-18 00:16:00
7:37 PM,15.8,10.9,81,29.86,5.0,East,18.4,33.4,N/A,,Haze,100,2014-02-18 00:37:00
7:57 PM,15.4,11.3,84,29.86,7.0,East,16.1,32.2,N/A,Snow,Light Snow,100,2014-02-18 00:57:00
8:17 PM,14.9,12.2,89,29.86,1.0,ESE,12.7,26.5,N/A,Snow,Snow,110,2014-02-18 01:17:00
8:37 PM,14.9,12.6,90,29.85,0.8,ESE,13.8,26.5,N/A,Snow,Snow,110,2014-02-18 01:37:00
8:56 PM,14.9,12.6,90,29.85,1.0,ESE,10.4,21.9,N/A,Snow,Snow,110,2014-02-18 01:56:00
9:17 PM,14.9,12.9,92,29.84,1.0,ESE,11.5,20.7,N/A,Snow,Snow,110,2014-02-18 02:17:00
9:37 PM,15.4,13.5,92,29.83,1.0,ESE,13.8,20.7,N/A,Snow,Snow,110,2014-02-18 02:37:00
9:56 PM,15.8,14.0,93,29.83,1.5,ESE,13.8,23.0,N/A,Snow,Light Snow,120,2014-02-18 02:56:00
10:17 PM,16.3,14.4,92,29.81,1.2,ESE,16.1,26.5,N/A,Snow,Light Snow,110,2014-02-18 03:17:00
10:36 PM,16.3,14.4,92,29.79,1.5,ESE,12.7,23.0,N/A,Snow,Light Snow,110,2014-02-18 03:36:00
10:56 PM,16.7,14.9,93,29.77,1.2,East,13.8,21.9,N/A,Snow,Light Snow,100,2014-02-18 03:56:00
11:16 PM,15.8,14.0,93,29.77,1.5,East,13.8,24.2,N/A,Snow,Light Snow,90,2014-02-18 04:16:00
11:36 PM,14.9,13.1,93,29.77,1.2,East,12.7,24.2,N/A,Snow,Light Snow,90,2014-02-18 04:36:00
11:56 PM,14.4,12.4,92,29.77,1.0,ENE,11.5,16.1,N/A,Snow,Snow,70,2014-02-18 04:56:00